KE0WPC Weather Reports


Display with metric or nautical units.
time (UTC)temp
F
wind
direction
speed
MPH
gust
MPH
rain 1hr
in
rain 24hr
in
rain mn
in
humidity
%
barometer
mb
20260504120301 49 0.0 0.0 0.00 0.00 0.00 68 1002.1
20260504110224 49 0.0 0.0 0.00 0.00 0.00 58 1001.8
20260504100143 51 0.0 0.0 0.00 0.00 0.00 51 1001.8
20260504090105 51 0.0 0.0 0.00 0.00 0.00 46 1001.1
20260504081535 49 0.0 0.0 0.00 0.00 0.00 43 1001.4
20260504081031 49 0.0 0.0 0.00 0.00 0.00 43 1001.4
20260504080528 49 0.0 0.0 0.00 0.00 0.00 43 1001.8
20260504050346 53 0.0 0.0 0.00 0.00 0.00 32 1004.3
20260504045844 53 0.0 0.0 0.00 0.00 0.00 32 1004.3
20260504045344 53 0.0 0.0 0.00 0.00 0.00 32 1004.7
20260504044841 54 0.0 0.0 0.00 0.00 0.00 32 1004.3
20260504044338 54 0.0 0.0 0.00 0.00 0.00 31 1004.7
20260504043836 54 0.0 0.0 0.00 0.00 0.00 30 1004.7
20260504043332 54 0.0 0.0 0.00 0.00 0.00 30 1005.0
20260504042830 54 0.0 0.0 0.00 0.00 0.00 29 1005.0
20260504042326 54 0.0 0.0 0.00 0.00 0.00 29 1005.0
20260504041822 54 0.0 0.0 0.00 0.00 0.00 29 1004.7
20260504041318 54 0.0 0.0 0.00 0.00 0.00 29 1004.7
20260504040815 54 0.0 0.0 0.00 0.00 0.00 28 1005.0
20260504040313 55 0.0 0.0 0.00 0.00 0.00 28 1005.0
20260504035808 55 0.0 0.0 0.00 0.00 0.00 28 1005.4
20260504035305 55 0.0 0.0 0.00 0.00 0.00 28 1005.0
20260504034802 55 0.0 0.0 0.00 0.00 0.00 28 1005.0
20260504034300 55 0.0 0.0 0.00 0.00 0.00 28 1005.4
20260504033757 55 0.0 0.0 0.00 0.00 0.00 28 1005.4
20260504033255 55 0.0 0.0 0.00 0.00 0.00 28 1005.7
20260504032751 55 0.0 0.0 0.00 0.00 0.00 28 1005.7
20260504032249 55 0.0 0.0 0.00 0.00 0.00 28 1006.1
20260504031745 55 0.0 0.0 0.00 0.00 0.00 28 1005.7
20260504031243 55 0.0 0.0 0.00 0.00 0.00 27 1006.1
20260504030738 55 0.0 0.0 0.00 0.00 0.00 27 1006.5
20260504030236 55 0.0 0.0 0.00 0.00 0.00 27 1006.5
20260504025732 55 0.0 0.0 0.00 0.00 0.00 25 1006.5
20260504025229 55 0.0 0.0 0.00 0.00 0.00 24 1006.5
20260504024726 55 0.0 0.0 0.00 0.00 0.00 24 1006.5
20260504024223 56 0.0 0.0 0.00 0.00 0.00 22 1006.5
20260504023720 56 0.0 0.0 0.00 0.00 0.00 21 1006.5
20260504023215 56 0.0 0.0 0.00 0.00 0.00 21 1006.5
20260504022712 56 0.0 0.0 0.00 0.00 0.00 20 1006.5
20260504022208 56 0.0 0.0 0.00 0.00 0.00 18 1006.5
20260504021706 57 0.0 0.0 0.00 0.00 0.00 18 1006.8
20260504021202 57 0.0 0.0 0.00 0.00 0.00 18 1006.8
20260504020659 57 0.0 0.0 0.00 0.00 0.00 17 1006.8
20260504020155 58 0.0 0.0 0.00 0.00 0.00 17 1006.8
20260504015652 58 0.0 0.0 0.00 0.00 0.00 17 1006.8
20260504015148 58 0.0 0.0 0.00 0.00 0.00 16 1006.8
20260504014644 59 0.0 0.0 0.00 0.00 0.00 16 1006.8
20260504014142 60 0.0 0.0 0.00 0.00 0.00 13 1006.8
20260504013639 60 0.0 0.0 0.00 0.00 0.00 13 1007.1
20260504013136 61 0.0 0.0 0.00 0.00 0.00 13 1007.1
20260504012633 62 0.0 0.0 0.00 0.00 0.00 13 1007.1
20260504012131 62 0.0 0.0 0.00 0.00 0.00 13 1007.1
20260504011628 63 0.0 0.0 0.00 0.00 0.00 11 1006.8
20260504011124 64 0.0 0.0 0.00 0.00 0.00 11 1007.1
20260504010620 64 0.0 0.0 0.00 0.00 0.00 11 1007.1
20260504010116 65 0.0 0.0 0.00 0.00 0.00 11 1007.1
20260504005613 65 0.0 0.0 0.00 0.00 0.00 11 1007.1
20260504005110 66 0.0 0.0 0.00 0.00 0.00 11 1007.1
20260504004608 67 0.0 0.0 0.00 0.00 0.00 12 1007.1
20260504004105 67 0.0 0.0 0.00 0.00 0.00 12 1007.1
20260504003601 68 0.0 0.0 0.00 0.00 0.00 12 1007.1
20260504003058 68 0.0 0.0 0.00 0.00 0.00 12 1007.1
20260504002555 68 0.0 0.0 0.00 0.00 0.00 12 1007.1
20260504002052 69 0.0 0.0 0.00 0.00 0.00 12 1007.1
20260504001550 69 0.0 0.0 0.00 0.00 0.00 10 1007.1
20260504001045 69 0.0 0.0 0.00 0.00 0.00 10 1007.1
20260504000543 70 0.0 0.0 0.00 0.00 0.00 10 1007.5
20260504000041 70 0.0 0.0 0.00 0.00 0.00 10 1007.1
20260503235539 70 0.0 0.0 0.00 0.00 0.00 10 1007.1
20260503235035 70 0.0 0.0 0.00 0.00 0.00 15 1007.5
20260503234533 71 0.0 0.0 0.00 0.00 0.00 15 1007.5
20260503234031 71 0.0 0.0 0.00 0.00 0.00 15 1007.5
20260503233527 71 0.0 0.0 0.00 0.00 0.00 15 1007.9
20260503233023 71 0.0 0.0 0.00 0.00 0.00 15 1007.9
20260503232520 71 0.0 0.0 0.00 0.00 0.00 15 1007.9
20260503232018 71 0.0 0.0 0.00 0.00 0.00 10 1007.9
20260503231516 71 0.0 0.0 0.00 0.00 0.00 10 1008.3
20260503231012 71 0.0 0.0 0.00 0.00 0.00 10 1008.3
20260503230508 71 0.0 0.0 0.00 0.00 0.00 10 1008.3
20260503230000 71 0.0 0.0 0.00 0.00 0.00 10 1008.3
20260503225457 71 0.0 0.0 0.00 0.00 0.00 14 1008.3
20260503224952 71 0.0 0.0 0.00 0.00 0.00 14 1008.6
20260503224449 71 0.0 0.0 0.00 0.00 0.00 14 1008.6
20260503223947 71 0.0 0.0 0.00 0.00 0.00 14 1008.3
20260503223445 71 0.0 0.0 0.00 0.00 0.00 14 1008.3
20260503222940 71 0.0 0.0 0.00 0.00 0.00 14 1008.3
20260503222439 72 0.0 0.0 0.00 0.00 0.00 12 1008.6
20260503221937 72 0.0 0.0 0.00 0.00 0.00 16 1008.3
20260503221435 72 0.0 0.0 0.00 0.00 0.00 18 1008.6
20260503220931 72 0.0 0.0 0.00 0.00 0.00 18 1008.6
20260503220427 72 0.0 0.0 0.00 0.00 0.00 19 1008.6
20260503215925 72 0.0 0.0 0.00 0.00 0.00 17 1008.6
20260503215422 72 0.0 0.0 0.00 0.00 0.00 17 1008.9
20260503214919 71 0.0 0.0 0.00 0.00 0.00 17 1008.6
20260503214416 71 0.0 0.0 0.00 0.00 0.00 16 1008.9
20260503213914 71 0.0 0.0 0.00 0.00 0.00 19 1008.9
20260503213412 71 0.0 0.0 0.00 0.00 0.00 19 1009.3
20260503212908 71 0.0 0.0 0.00 0.00 0.00 19 1008.9
20260503212406 71 0.0 0.0 0.00 0.00 0.00 19 1008.9
20260503211903 71 0.0 0.0 0.00 0.00 0.00 18 1009.3
20260503211359 70 0.0 0.0 0.00 0.00 0.00 20 1009.3
20260503210854 70 0.0 0.0 0.00 0.00 0.00 17 1009.3
20260503210352 71 0.0 0.0 0.00 0.00 0.00 21 1009.7
20260503205847 71 0.0 0.0 0.00 0.00 0.00 22 1009.7
20260503205345 70 0.0 0.0 0.00 0.00 0.00 20 1009.7
20260503204841 70 0.0 0.0 0.00 0.00 0.00 18 1010.1
20260503204338 70 0.0 0.0 0.00 0.00 0.00 22 1010.1
20260503203835 70 0.0 0.0 0.00 0.00 0.00 22 1010.1
20260503203333 70 0.0 0.0 0.00 0.00 0.00 23 1009.7
20260503202829 70 0.0 0.0 0.00 0.00 0.00 23 1010.1
20260503202328 70 0.0 0.0 0.00 0.00 0.00 21 1010.1
20260503201826 71 0.0 0.0 0.00 0.00 0.00 23 1010.1
20260503201322 70 0.0 0.0 0.00 0.00 0.00 23 1010.4
20260503200820 70 0.0 0.0 0.00 0.00 0.00 23 1010.1
20260503200315 70 0.0 0.0 0.00 0.00 0.00 24 1010.4
20260503195813 70 0.0 0.0 0.00 0.00 0.00 25 1010.7
20260503195310 69 0.0 0.0 0.00 0.00 0.00 24 1010.7
20260503194807 70 0.0 0.0 0.00 0.00 0.00 23 1010.7
20260503194303 70 0.0 0.0 0.00 0.00 0.00 24 1010.7
20260503193759 70 0.0 0.0 0.00 0.00 0.00 24 1010.7
20260503193255 69 0.0 0.0 0.00 0.00 0.00 25 1010.7
20260503192751 69 0.0 0.0 0.00 0.00 0.00 25 1011.1
20260503192246 69 0.0 0.0 0.00 0.00 0.00 25 1011.1
20260503191743 69 0.0 0.0 0.00 0.00 0.00 28 1011.1
20260503191240 69 0.0 0.0 0.00 0.00 0.00 28 1011.1
20260503190737 69 0.0 0.0 0.00 0.00 0.00 28 1011.1
20260503190233 69 0.0 0.0 0.00 0.00 0.00 28 1011.1
20260503185731 69 0.0 0.0 0.00 0.00 0.00 28 1011.1
20260503185226 69 0.0 0.0 0.00 0.00 0.00 26 1011.1
20260503184721 69 0.0 0.0 0.00 0.00 0.00 29 1011.1
20260503184217 68 0.0 0.0 0.00 0.00 0.00 29 1011.5
20260503183714 68 0.0 0.0 0.00 0.00 0.00 28 1011.5
20260503183211 68 0.0 0.0 0.00 0.00 0.00 28 1011.5
20260503182709 68 0.0 0.0 0.00 0.00 0.00 29 1011.1
20260503182208 68 0.0 0.0 0.00 0.00 0.00 31 1011.1
20260503181703 67 0.0 0.0 0.00 0.00 0.00 29 1011.9
20260503181201 67 0.0 0.0 0.00 0.00 0.00 29 1011.9
20260503180657 67 0.0 0.0 0.00 0.00 0.00 28 1011.9
20260503180156 67 0.0 0.0 0.00 0.00 0.00 28 1011.9
20260503175652 68 0.0 0.0 0.00 0.00 0.00 29 1012.2
20260503175150 68 0.0 0.0 0.00 0.00 0.00 30 1012.2
20260503174646 67 0.0 0.0 0.00 0.00 0.00 31 1011.9
20260503174143 66 0.0 0.0 0.00 0.00 0.00 33 1012.2
20260503173638 66 0.0 0.0 0.00 0.00 0.00 31 1012.2
20260503173135 66 0.0 0.0 0.00 0.00 0.00 31 1012.2
20260503172632 67 0.0 0.0 0.00 0.00 0.00 30 1012.2
20260503172129 66 0.0 0.0 0.00 0.00 0.00 34 1012.2
20260503171625 66 0.0 0.0 0.00 0.00 0.00 34 1012.2
20260503171123 66 0.0 0.0 0.00 0.00 0.00 37 1012.2
20260503170620 66 0.0 0.0 0.00 0.00 0.00 38 1012.5
20260503170116 66 0.0 0.0 0.00 0.00 0.00 37 1012.5
20260503151006 61 0.0 0.0 0.00 0.00 0.00 48 1012.9
20260503150503 61 0.0 0.0 0.00 0.00 0.00 48 1012.9
20260503131349 53 0.0 0.0 0.00 0.00 0.00 61 1012.5
20260503130847 52 0.0 0.0 0.00 0.00 0.00 62 1012.5
20260503130344 51 0.0 0.0 0.00 0.00 0.00 63 1012.2